Date String (YYYY-MM-DD hh:mm:ss) UTC,Instrument flags,absolute air pressure of the measurement (hPa),sample flow rate (lpm),inlet stack bypass flow (lpm),air temperature of the measurement (°C),ambient temperature measured by the external sensor (°C),aerosol sample conditioner tube jacket temperature (°C),OPC LED temperature (°C),internal box temperature (°C),relative humidity of the measurement (%),span deviation,mass concentration of particles derived from Lorenz-Mie calculation of OPC scattering (μg/m³),mass concentration of particles derived from Lorenz-Mie calculation of OPC scattering (μg/m³),mass concentration of particles derived from Lorenz-Mie calculation of OPC scattering (μg/m³)
DateTimeUTC,F1_M11,P_M11,Q1_M11,Q2_M11,T1_M11,T2_M11,T3_M11,T4_M11,T5_M11,U1_M11,ZSPAN_M11,X0_M11,X2_M11,X1_M11
2024-01-23 19:00:00,SystemResetWarning,0825.4,5.00,000.00,024.4,023.8,000.0,032.6,026.0,15.8,0002.5,0013.81,0009.90,0009.48
2024-01-23 19:01:00,SystemResetWarning,0825.4,5.00,000.00,024.4,023.8,000.0,032.6,026.0,15.6,0002.6,0013.90,0009.95,0009.52
2024-01-23 19:02:00,SystemResetWarning,0825.4,5.00,000.00,024.5,023.8,000.0,032.6,026.0,15.4,0002.6,0013.98,0010.01,0009.58
2024-01-23 19:03:00,SystemResetWarning,0825.4,5.00,000.00,024.5,023.8,000.0,032.6,026.0,15.4,0002.5,0014.14,0010.09,0009.63
2024-01-23 19:04:00,SystemResetWarning,0825.4,5.00,000.00,024.5,023.9,000.0,032.7,026.0,15.4,0002.3,0014.26,0010.13,0009.67
2024-01-23 19:05:00,SystemResetWarning,0825.4,5.00,000.00,024.5,023.9,000.0,032.7,026.1,15.5,0002.2,0014.10,0010.18,0009.70
2024-01-23 19:06:00,SystemResetWarning,0825.3,5.00,000.00,024.5,023.9,000.0,032.7,026.1,15.6,0002.2,0014.61,0010.23,0009.73
2024-01-23 19:07:00,SystemResetWarning,0825.3,5.00,000.00,024.6,023.9,000.0,032.7,026.1,15.5,0002.4,0014.74,0010.22,0009.74
2024-01-23 19:08:00,SystemResetWarning,0825.3,5.00,000.00,024.6,024.0,000.0,032.7,026.1,15.5,0002.8,0014.86,0010.25,0009.77
2024-01-23 19:09:00,SystemResetWarning,0825.3,5.00,000.00,024.6,024.0,000.0,032.7,026.1,15.2,0003.0,0015.15,0010.26,0009.76
2024-01-23 19:10:00,SystemResetWarning,0825.3,5.00,000.00,024.6,024.0,000.0,032.8,026.2,15.1,0003.0,0015.72,0010.24,0009.75
2024-01-23 19:11:00,SystemResetWarning,0825.2,5.00,000.00,024.6,024.0,000.0,032.8,026.2,15.1,0002.8,0015.87,0010.27,0009.74
2024-01-23 19:12:00,SystemResetWarning,0825.3,5.00,000.00,024.7,024.0,000.0,032.8,026.2,15.2,0002.8,0015.99,0010.28,0009.75
2024-01-23 19:13:00,SystemResetWarning,0825.3,5.00,000.00,024.7,024.0,000.0,032.8,026.2,15.1,0002.8,0016.05,0010.30,0009.76
2024-01-23 19:14:00,SystemResetWarning,0825.3,5.00,000.00,024.7,024.1,000.0,032.8,026.2,15.1,0002.8,0015.95,0010.29,0009.78
2024-01-23 19:15:00,SystemResetWarning,0825.2,5.00,000.00,024.7,024.1,000.0,032.8,026.2,15.0,0002.9,0016.01,0010.33,0009.82
2024-01-23 19:16:00,SystemResetWarning,0825.3,5.00,000.00,024.7,024.1,000.0,032.9,026.3,15.0,0003.0,0016.09,0010.29,0009.80
2024-01-23 19:17:00,SystemResetWarning,0825.2,5.00,000.00,024.7,024.1,000.0,032.9,026.3,15.1,0002.9,0016.14,0010.23,0009.76
2024-01-23 19:18:00,SystemResetWarning,0825.2,5.00,000.00,024.7,024.1,000.0,032.9,026.3,15.1,0002.7,0017.40,0010.21,0009.75
2024-01-23 19:19:00,SystemResetWarning,0825.3,5.00,000.00,024.8,024.1,000.0,032.9,026.3,15.4,0002.5,0017.61,0010.19,0009.74
2024-01-23 19:20:00,SystemResetWarning,0825.2,5.00,000.00,024.8,024.1,000.0,032.9,026.3,15.2,0002.5,0017.28,0010.20,0009.78
2024-01-23 19:21:00,SystemResetWarning,0825.2,5.00,000.00,024.8,024.2,000.0,032.9,026.3,15.1,0002.4,0016.62,0010.21,0009.80
2024-01-23 19:22:00,SystemResetWarning,0825.2,5.00,000.00,024.8,024.2,000.0,033.0,026.3,15.0,0002.5,0016.72,0010.25,0009.83
2024-01-23 19:23:00,SystemResetWarning,0825.2,5.00,000.00,024.8,024.2,000.0,033.0,026.4,15.1,0002.5,0017.37,0010.30,0009.85
2024-01-23 19:24:00,SystemResetWarning,0825.2,5.00,000.00,024.9,024.2,000.0,033.0,026.4,15.1,0002.5,0017.53,0010.30,0009.84
2024-01-23 19:25:00,SystemResetWarning,0825.1,5.00,000.00,024.9,024.2,000.0,033.0,026.4,15.2,0002.5,0018.13,0010.24,0009.76
2024-01-23 19:26:00,SystemResetWarning,0825.1,4.99,000.00,024.9,024.3,000.0,033.0,026.4,15.1,0002.3,0018.40,0010.20,0009.70
2024-01-23 19:27:00,SystemResetWarning,0825.1,4.99,000.00,024.9,024.3,000.0,033.0,026.5,15.3,0002.1,0018.51,0010.20,0009.66
2024-01-23 19:28:00,SystemResetWarning,0825.1,5.00,000.00,024.9,024.3,000.0,033.1,026.5,15.2,0002.1,0019.17,0010.21,0009.66
2024-01-23 19:29:00,SystemResetWarning,0825.1,5.00,000.00,025.0,024.3,000.0,033.1,026.5,15.1,0002.1,0017.97,0010.19,0009.62
2024-01-23 19:30:00,SystemResetWarning,0825.1,5.00,000.00,025.0,024.3,000.0,033.1,026.5,15.1,0002.2,0017.65,0010.12,0009.54
2024-01-23 19:31:00,SystemResetWarning,0825.1,5.00,000.00,025.0,024.3,000.0,033.1,026.5,15.2,0002.4,0017.55,0010.03,0009.44
2024-01-23 19:32:00,SystemResetWarning,0825.1,5.00,000.00,025.0,024.4,000.0,033.1,026.5,15.3,0002.7,0017.71,0009.94,0009.33
2024-01-23 19:33:00,SystemResetWarning,0825.1,5.00,000.00,025.0,024.4,000.0,033.2,026.6,15.4,0002.9,0018.58,0009.83,0009.22
2024-01-23 19:34:00,SystemResetWarning,0825.1,5.00,000.00,025.1,024.4,000.0,033.2,026.6,15.5,0003.2,0018.44,0009.73,0009.11
2024-01-23 19:35:00,SystemResetWarning,0825.1,5.00,000.00,025.1,024.4,000.0,033.2,026.6,15.5,0003.3,0018.42,0009.62,0009.03
2024-01-23 19:36:00,SystemResetWarning,0825.1,5.00,000.00,025.1,024.4,000.0,033.2,026.6,15.4,0003.4,0017.99,0009.62,0008.99
2024-01-23 19:37:00,SystemResetWarning,0825.0,5.00,000.00,025.1,024.5,000.0,033.2,026.6,15.3,0003.5,0017.66,0009.60,0008.98
2024-01-23 19:38:00,SystemResetWarning,0825.0,5.00,000.00,025.1,024.5,000.0,033.2,026.7,15.4,0003.4,0017.66,0009.62,0008.99
2024-01-23 19:39:00,SystemResetWarning,0825.0,5.00,000.00,025.1,024.5,000.0,033.3,026.7,15.6,0003.4,0016.92,0009.63,0008.97
2024-01-23 19:40:00,SystemResetWarning,0825.0,5.01,000.00,025.2,024.5,000.0,033.3,026.7,15.3,0003.4,0016.75,0009.62,0008.97
2024-01-23 19:41:00,SystemResetWarning,0825.0,5.00,000.00,025.2,024.5,000.0,033.3,026.7,15.3,0003.3,0016.77,0009.66,0009.01
2024-01-23 19:42:00,SystemResetWarning,0825.0,4.99,000.00,025.2,024.6,000.0,033.3,026.7,15.2,0003.0,0016.92,0009.73,0009.06
2024-01-23 19:43:00,SystemResetWarning,0824.9,4.99,000.00,025.2,024.6,000.0,033.3,026.7,15.0,0002.7,0016.91,0009.83,0009.15
2024-01-23 19:44:00,SystemResetWarning,0824.9,5.00,000.00,025.2,024.6,000.0,033.4,026.7,15.0,0002.4,0016.06,0009.90,0009.23
2024-01-23 19:45:00,SystemResetWarning,0824.9,5.01,000.00,025.2,024.6,000.0,033.4,026.7,15.1,0002.2,0015.50,0009.96,0009.31
2024-01-23 19:46:00,SystemResetWarning,0824.9,5.01,000.00,025.3,024.6,000.0,033.4,026.7,15.1,0001.8,0015.29,0010.03,0009.38
2024-01-23 19:47:00,SystemResetWarning,0824.9,5.00,000.00,025.3,024.6,000.0,033.4,026.7,15.4,0001.8,0015.23,0010.10,0009.46
2024-01-23 19:48:00,SystemResetWarning,0824.9,4.98,000.00,025.3,024.6,000.0,033.4,026.8,15.4,0001.8,0015.50,0010.20,0009.55
2024-01-23 19:49:00,SystemResetWarning,0824.9,5.00,000.00,025.3,024.7,000.0,033.4,026.8,15.0,0001.9,0016.17,0010.34,0009.66
2024-01-23 19:50:00,SystemResetWarning,0824.9,5.02,000.00,025.3,024.7,000.0,033.5,026.8,15.3,0001.5,0016.05,0010.54,0009.85
2024-01-23 19:51:00,SystemResetWarning,0824.9,5.00,000.00,025.3,024.7,000.0,033.5,026.8,15.4,0001.6,0016.25,0010.80,0010.07
2024-01-23 19:52:00,SystemResetWarning,0824.9,5.00,000.00,025.3,024.7,000.0,033.5,026.8,15.4,0001.7,0017.02,0011.03,0010.25
2024-01-23 19:53:00,SystemResetWarning,0824.9,4.99,000.00,025.4,024.7,000.0,033.5,026.8,15.1,0001.8,0017.49,0011.25,0010.45
2024-01-23 19:54:00,SystemResetWarning,0824.9,4.99,000.00,025.4,024.7,000.0,033.5,026.8,15.0,0002.0,0018.03,0011.47,0010.67
2024-01-23 19:55:00,SystemResetWarning,0824.9,5.00,000.00,025.4,024.7,000.0,033.5,026.8,15.0,0002.3,0019.40,0011.72,0010.89
2024-01-23 19:56:00,SystemResetWarning,0824.9,5.00,000.00,025.4,024.7,000.0,033.6,026.8,15.1,0002.1,0019.82,0012.00,0011.13
2024-01-23 19:57:00,SystemResetWarning,0824.9,5.00,000.00,025.4,024.7,000.0,033.6,026.8,15.1,0002.0,0020.39,0012.34,0011.42
2024-01-23 19:58:00,SystemResetWarning,0824.9,5.00,000.00,025.4,024.7,000.0,033.6,026.8,14.7,0002.0,0021.33,0012.70,0011.73
2024-01-23 19:59:00,SystemResetWarning,0824.9,5.00,000.00,025.4,024.7,000.0,033.6,026.8,14.6,0001.9,0022.48,0013.07,0012.06
